Regional Weather Roundup
Issued by NWS Kansas City/Pleasant Hill, MO

Home | Current Version | Previous Version | Text Only | Print | Product List | Glossary On
Versions: 1 2 3 4 5 6 7 8 9 10 11 12 13 14 15 16 17 18 19 20 21 22 23 24 25 26 27 28 29 30 31 32 33 34 35 36 37 38 39 40 41 42 43 44 45 46 47 48 49 50
000
ASUS43 KEAX 291704
RWREAX

WEATHER ROUNDUP FOR EASTERN KANSAS AND NORTHWEST MISSOURI
NATIONAL WEATHER SERVICE KANSAS CITY/PLEASANT HILL MO
1200 PM CDT FRI AUG 29 2014

KSZ040-057-103>105-MOZ028-029-037-043-291800-
...KANSAS CITY METROPOLITAN AREA...

CITY           SKY/WX    TMP DP  RH WIND       PRES   REMARKS
K.C. INTL      CLOUDY    73  66  78 S7        29.89R
K.C. DOWNTOWN  LGT RAIN  72  68  87 S7        29.90R FOG
LEES SUMMIT    RAIN      72  70  93 SW8       29.91R FOG
OLATHE - IXD   LGT RAIN  70  68  93 S7        29.91R FOG
OLATHE - OJC   RAIN      69  68  96 S5        29.90R FOG
LAWRENCE       CLOUDY    77  68  73 S8        29.89R

$$

MOZ001>008-011>017-020>025-030>033-038>040-044>046-053-054-291800-
...NORTHERN AND CENTRAL MISSOURI...

CITY           SKY/WX    TMP DP  RH WIND       PRES   REMARKS
ST. JOSEPH     CLOUDY    75  69  81 SW3       29.85F
MOSBY          HVY RAIN  79  68  69 SW10      29.87S
WHITEMAN AFB   PTSUNNY   82  70  66 SW10      29.89S
CLINTON        PTSUNNY   81  70  69 SW10G21   29.91R
SEDALIA        MOSUNNY   88  69  53 SW10G20   29.89F HX  92
WARSAW         NOT AVBL
MARSHALL       PTSUNNY   86  72  62 S10       29.89F HX  92
CHILLICOTHE      N/A     82  70  66 S9        29.87F
MOBERLY        SUNNY     86  66  51 S8        29.90F
KIRKSVILLE     SUNNY     85  70  60 S13       29.89F

$$

MOZ041-047>049-056>058-063>065-088>090-097-291800-
...EASTERN AND SOUTHERN MISSOURI...

CITY           SKY/WX    TMP DP  RH WIND       PRES   REMARKS
ST. LOUIS INTL PTSUNNY   89  69  51 SW8       29.94F HX  93
SPIRIT OF STL  MOSUNNY   87  67  51 S9        29.92F HX  90
COLUMBIA       MOSUNNY   88  66  48 SW14      29.91F HX  90
JEFFERSON CITY SUNNY     88  65  46 S9        29.89F HX  90
MEXICO         SUNNY     90  72  55 S9G16     29.91F HX  96
ROLLA          MOSUNNY   88  63  43 S14G24    29.93F
LEBANON        SUNNY     86  63  45 S15G23    29.93F
OSAGE BEACH    PTSUNNY   88  66  48 S13G18    29.90F HX  90
SPRINGFIELD    PTSUNNY   85  66  53 SW18G24   29.93F
BRANSON        MOSUNNY   86  66  51 S10       29.96S
NEVADA         CLOUDY    75  70  83 SW7       29.93F
JOPLIN         PTSUNNY   82  69  64 S14       29.93F
WEST PLAINS    MOSUNNY   87  65  47 S12G18    29.97F

$$

IAZ060-094-KSZ022-034>040-054-083-096-NEZ052-066-093-291800-
...KANSAS...SOUTHEAST NEBRASKA AND IOWA...

CITY           SKY/WX    TMP DP  RH WIND       PRES   REMARKS
TOPEKA         CLOUDY    76  67  73 VRB6      29.87F
MANHATTAN      MOSUNNY   80  65  59 S9        29.85F
EMPORIA        PTSUNNY   80  64  58 VRB5      29.87F
CHANUTE        MOSUNNY   77  67  71 S9        29.91S
WICHITA        MOSUNNY   81  63  54 S9        29.89F
OMAHA          LGT RAIN  73  68  84 SW7       29.85R
LINCOLN        CLOUDY    73  67  81 SW7       29.85S
FALLS CITY     CLOUDY    74  67  78 S9        29.85S
DES MOINES     PTSUNNY   84  70  62 S16       29.82F

$$




USA.gov is the U.S. government's official web portal to all federal, state and local government web resources and services.